User: anonymous   Login
Location: Unspecified
(0.0000°N, 0.0000°E)
Time: 21:55:35
(UTC+00:00)
Language:

STARLINK-31609 - Orbit

View from above orbital plane
View from above orbital plane
View from above satellite
View from above satellite

Ground track
Ground track

The orbit is defined by the following mean orbital elements,

1 59269U          26145.48178999 +.00000000 +00000-0 +27820-4 0 00000
2 59269  53.1595 184.4515 0000991  91.3096 268.8018 15.30186372    05
Epoch (UTC): 25 May 2026 11:33:46
Eccentricity: 0.0000991
inclination: 53.1595°
perigee height: 475 km
apogee height: 476 km
right ascension of ascending node: 184.4515°
argument of perigee: 91.3096°
revolutions per day: 15.30186372
mean anomaly at epoch: 268.8018°

The dashed part of the orbit path shows where the satellite is in the earth's shadow,  

DLR